Time,TemperatureF,DewpointF,PressureIn,WindDirection,WindDirectionDegrees,WindSpeedMPH,WindSpeedGustMPH,Humidity,HourlyPrecipIn,Conditions,Clouds,dailyrainin,SoftwareType,DateUTC
2013-04-11 00:01:00,47.0,45.0,29.93,West,265,0.0,0.0,92,0.00,,,0.08,weatherlink.com 1.10,2013-04-11 04:01:00,
2013-04-11 00:16:00,46.7,45.0,29.93,West,265,0.0,0.0,92,0.00,,,0.00,weatherlink.com 1.10,2013-04-11 04:16:00,
2013-04-11 00:46:00,46.9,44.0,29.92,West,269,3.0,5.0,89,0.00,,,0.00,weatherlink.com 1.10,2013-04-11 04:46:00,
2013-04-11 01:01:00,46.9,44.0,29.92,WNW,282,3.0,4.0,88,0.00,,,0.00,weatherlink.com 1.10,2013-04-11 05:01:00,
2013-04-11 01:46:00,46.4,43.0,29.92,West,269,5.0,6.0,87,0.00,,,0.00,weatherlink.com 1.10,2013-04-11 05:46:00,
2013-04-11 02:01:00,46.8,42.0,29.91,WNW,287,7.0,10.0,84,0.00,,,0.00,weatherlink.com 1.10,2013-04-11 06:01:00,
2013-04-11 02:16:00,46.5,42.0,29.91,West,275,5.0,9.0,84,0.00,,,0.00,weatherlink.com 1.10,2013-04-11 06:16:00,
2013-04-11 02:31:00,46.2,42.0,29.90,West,267,6.0,9.0,85,0.00,,,0.00,weatherlink.com 1.10,2013-04-11 06:31:00,
2013-04-11 02:46:00,46.0,42.0,29.89,WNW,285,8.0,9.0,85,0.00,,,0.00,weatherlink.com 1.10,2013-04-11 06:46:00,
2013-04-11 03:01:00,46.0,41.0,29.89,WNW,297,7.0,9.0,83,0.00,,,0.00,weatherlink.com 1.10,2013-04-11 07:01:00,
2013-04-11 03:16:00,46.2,40.0,29.90,WNW,295,8.0,10.0,79,0.00,,,0.00,weatherlink.com 1.10,2013-04-11 07:16:00,
2013-04-11 03:31:00,46.5,39.0,29.91,NW,317,8.0,11.0,76,0.00,,,0.00,weatherlink.com 1.10,2013-04-11 07:31:00,
2013-04-11 03:46:00,46.4,40.0,29.90,NW,309,5.0,7.0,77,0.00,,,0.00,weatherlink.com 1.10,2013-04-11 07:46:00,
2013-04-11 04:01:00,46.3,39.0,29.89,NW,325,2.0,7.0,77,0.00,,,0.00,weatherlink.com 1.10,2013-04-11 08:01:00,
2013-04-11 04:16:00,46.5,34.0,29.89,NNW,340,4.0,11.0,63,0.00,,,0.00,weatherlink.com 1.10,2013-04-11 08:16:00,
2013-04-11 04:31:00,46.2,34.0,29.89,NNW,327,5.0,9.0,63,0.00,,,0.00,weatherlink.com 1.10,2013-04-11 08:31:00,
2013-04-11 04:46:00,45.7,33.0,29.89,NNW,344,8.0,11.0,62,0.00,,,0.00,weatherlink.com 1.10,2013-04-11 08:46:00,
2013-04-11 05:01:00,45.6,32.0,29.90,NW,315,10.0,11.0,60,0.00,,,0.00,weatherlink.com 1.10,2013-04-11 09:01:00,
2013-04-11 05:16:00,45.6,32.0,29.90,NNW,331,5.0,10.0,59,0.00,,,0.00,weatherlink.com 1.10,2013-04-11 09:16:00,
2013-04-11 05:31:00,45.7,31.0,29.91,NNE,15,3.0,5.0,56,0.00,,,0.00,weatherlink.com 1.10,2013-04-11 09:31:00,
2013-04-11 05:46:00,45.8,30.0,29.91,NW,315,6.0,10.0,55,0.00,,,0.00,weatherlink.com 1.10,2013-04-11 09:46:00,
2013-04-11 06:01:00,45.9,30.0,29.92,NW,321,6.0,10.0,54,0.00,,,0.00,weatherlink.com 1.10,2013-04-11 10:01:00,
2013-04-11 06:16:00,45.6,31.0,29.93,NW,315,2.0,12.0,57,0.00,,,0.00,weatherlink.com 1.10,2013-04-11 10:16:00,
2013-04-11 06:31:00,44.9,32.0,29.93,NNE,27,3.0,11.0,60,0.00,,,0.00,weatherlink.com 1.10,2013-04-11 10:31:00,
2013-04-11 06:46:00,43.8,31.0,29.94,NNE,14,0.0,11.0,61,0.00,,,0.00,weatherlink.com 1.10,2013-04-11 10:46:00,
2013-04-11 07:02:00,42.8,31.0,29.96,North,360,12.0,13.0,64,0.00,,,0.00,weatherlink.com 1.10,2013-04-11 11:02:00,
2013-04-11 07:17:00,42.5,31.0,29.97,North,355,4.0,11.0,64,0.00,,,0.00,weatherlink.com 1.10,2013-04-11 11:17:00,
2013-04-11 07:32:00,41.3,29.0,29.98,NNE,12,11.0,15.0,63,0.00,,,0.00,weatherlink.com 1.10,2013-04-11 11:32:00,
2013-04-11 07:47:00,40.4,29.0,29.99,NNW,331,5.0,13.0,65,0.00,,,0.00,weatherlink.com 1.10,2013-04-11 11:47:00,
2013-04-11 08:02:00,41.6,31.0,29.99,WNW,302,3.0,10.0,65,0.00,,,0.00,weatherlink.com 1.10,2013-04-11 12:02:00,
2013-04-11 08:17:00,41.6,30.0,29.99,East,101,1.0,11.0,63,0.00,,,0.00,weatherlink.com 1.10,2013-04-11 12:17:00,
2013-04-11 08:32:00,41.7,31.0,29.98,NE,54,4.0,12.0,65,0.00,,,0.00,weatherlink.com 1.10,2013-04-11 12:32:00,
2013-04-11 08:47:00,41.7,28.0,29.98,NE,51,3.0,10.0,59,0.00,,,0.00,weatherlink.com 1.10,2013-04-11 12:47:00,
2013-04-11 09:02:00,42.1,27.0,29.99,NE,42,9.0,13.0,56,0.00,,,0.00,weatherlink.com 1.10,2013-04-11 13:02:00,
2013-04-11 09:17:00,41.8,29.0,29.99,ENE,61,3.0,12.0,61,0.00,,,0.00,weatherlink.com 1.10,2013-04-11 13:17:00,
2013-04-11 09:32:00,41.2,31.0,30.00,East,82,7.0,11.0,66,0.00,,,0.00,weatherlink.com 1.10,2013-04-11 13:32:00,
2013-04-11 09:47:00,41.9,30.0,30.00,East,99,7.0,8.0,64,0.00,,,0.00,weatherlink.com 1.10,2013-04-11 13:47:00,
2013-04-11 10:02:00,42.0,31.0,30.00,East,90,5.0,10.0,65,0.00,,,0.00,weatherlink.com 1.10,2013-04-11 14:02:00,
2013-04-11 10:17:00,41.8,30.0,30.00,East,98,1.0,10.0,64,0.00,,,0.00,weatherlink.com 1.10,2013-04-11 14:17:00,
2013-04-11 10:32:00,43.6,26.0,30.00,WNW,300,15.0,16.0,51,0.00,,,0.00,weatherlink.com 1.10,2013-04-11 14:32:00,
2013-04-11 10:47:00,45.2,24.0,29.99,WNW,301,15.0,16.0,44,0.00,,,0.00,weatherlink.com 1.10,2013-04-11 14:47:00,
2013-04-11 11:02:00,46.3,25.0,30.00,NW,319,8.0,18.0,43,0.00,,,0.00,weatherlink.com 1.10,2013-04-11 15:02:00,
2013-04-11 11:17:00,47.5,23.0,30.01,NW,313,3.0,16.0,39,0.00,,,0.00,weatherlink.com 1.10,2013-04-11 15:17:00,
2013-04-11 11:32:00,47.6,22.0,30.01,West,281,8.0,20.0,37,0.00,,,0.00,weatherlink.com 1.10,2013-04-11 15:32:00,
2013-04-11 11:47:00,47.6,21.0,30.01,WNW,292,9.0,19.0,35,0.00,,,0.00,weatherlink.com 1.10,2013-04-11 15:47:00,
2013-04-11 12:02:00,47.2,21.0,30.02,North,10,9.0,18.0,35,0.00,,,0.00,weatherlink.com 1.10,2013-04-11 16:02:00,
2013-04-11 12:17:00,47.5,22.0,30.02,NW,310,7.0,20.0,36,0.00,,,0.00,weatherlink.com 1.10,2013-04-11 16:17:00,
2013-04-11 12:32:00,48.0,19.0,30.02,WNW,294,11.0,18.0,32,0.00,,,0.00,weatherlink.com 1.10,2013-04-11 16:32:00,
2013-04-11 12:47:00,49.1,21.0,30.02,NW,306,5.0,12.0,33,0.00,,,0.00,weatherlink.com 1.10,2013-04-11 16:47:00,
2013-04-11 13:02:00,49.0,19.0,30.02,NW,306,8.0,17.0,31,0.00,,,0.00,weatherlink.com 1.10,2013-04-11 17:02:00,
2013-04-11 13:17:00,49.7,20.0,30.02,WNW,300,8.0,13.0,31,0.00,,,0.00,weatherlink.com 1.10,2013-04-11 17:17:00,
2013-04-11 13:32:00,49.6,21.0,30.02,WNW,293,1.0,20.0,32,0.00,,,0.00,weatherlink.com 1.10,2013-04-11 17:32:00,
2013-04-11 13:47:00,50.3,20.0,30.03,North,360,6.0,15.0,30,0.00,,,0.00,weatherlink.com 1.10,2013-04-11 17:47:00,
2013-04-11 14:02:00,48.8,17.0,30.03,NNW,330,4.0,18.0,28,0.00,,,0.00,weatherlink.com 1.10,2013-04-11 18:02:00,
2013-04-11 14:17:00,49.9,19.0,30.02,NNW,336,13.0,15.0,29,0.00,,,0.00,weatherlink.com 1.10,2013-04-11 18:17:00,
2013-04-11 14:32:00,49.1,16.0,30.02,North,5,6.0,17.0,27,0.00,,,0.00,weatherlink.com 1.10,2013-04-11 18:32:00,
2013-04-11 14:47:00,50.3,16.0,30.02,WNW,298,12.0,19.0,25,0.00,,,0.00,weatherlink.com 1.10,2013-04-11 18:47:00,
2013-04-11 15:02:00,50.1,14.0,30.02,WNW,289,10.0,18.0,24,0.00,,,0.00,weatherlink.com 1.10,2013-04-11 19:02:00,
2013-04-11 15:17:00,49.6,16.0,30.01,WNW,293,8.0,18.0,26,0.00,,,0.00,weatherlink.com 1.10,2013-04-11 19:17:00,
2013-04-11 15:32:00,49.7,15.0,30.01,WNW,286,12.0,15.0,25,0.00,,,0.00,weatherlink.com 1.10,2013-04-11 19:32:00,
2013-04-11 15:48:00,49.7,14.0,30.02,NNW,328,9.0,16.0,24,0.00,,,0.00,weatherlink.com 1.10,2013-04-11 19:48:00,
2013-04-11 16:02:00,49.1,12.0,30.02,NW,304,17.0,18.0,22,0.00,,,0.00,weatherlink.com 1.10,2013-04-11 20:02:00,
2013-04-11 16:17:00,48.9,14.0,30.02,NNW,327,15.0,23.0,25,0.00,,,0.00,weatherlink.com 1.10,2013-04-11 20:17:00,
2013-04-11 16:33:00,48.5,14.0,30.01,NNW,332,8.0,18.0,25,0.00,,,0.00,weatherlink.com 1.10,2013-04-11 20:33:00,
2013-04-11 16:48:00,48.8,14.0,30.02,NE,48,12.0,15.0,25,0.00,,,0.00,weatherlink.com 1.10,2013-04-11 20:48:00,
2013-04-11 17:18:00,48.3,15.0,30.05,NNW,346,5.0,13.0,26,0.00,,,0.00,weatherlink.com 1.10,2013-04-11 21:18:00,
2013-04-11 17:33:00,48.2,15.0,30.05,NNW,328,6.0,17.0,26,0.00,,,0.00,weatherlink.com 1.10,2013-04-11 21:33:00,
2013-04-11 17:48:00,48.0,14.0,30.07,North,5,8.0,13.0,25,0.00,,,0.00,weatherlink.com 1.10,2013-04-11 21:48:00,
2013-04-11 18:03:00,47.8,15.0,30.07,NNW,342,7.0,11.0,27,0.00,,,0.00,weatherlink.com 1.10,2013-04-11 22:03:00,
2013-04-11 18:18:00,47.6,15.0,30.07,NNW,339,6.0,11.0,27,0.00,,,0.00,weatherlink.com 1.10,2013-04-11 22:18:00,
2013-04-11 18:33:00,47.2,15.0,30.08,North,360,6.0,12.0,28,0.00,,,0.00,weatherlink.com 1.10,2013-04-11 22:33:00,
2013-04-11 18:48:00,46.9,15.0,30.09,North,9,6.0,12.0,28,0.00,,,0.00,weatherlink.com 1.10,2013-04-11 22:48:00,
2013-04-11 19:03:00,46.4,15.0,30.08,North,360,7.0,12.0,28,0.00,,,0.00,weatherlink.com 1.10,2013-04-11 23:03:00,
2013-04-11 19:18:00,46.1,14.0,30.09,NE,40,5.0,9.0,28,0.00,,,0.00,weatherlink.com 1.10,2013-04-11 23:18:00,
2013-04-11 19:33:00,45.8,16.0,30.10,North,5,4.0,10.0,30,0.00,,,0.00,weatherlink.com 1.10,2013-04-11 23:33:00,
2013-04-11 19:48:00,45.4,15.0,30.11,North,9,2.0,10.0,30,0.00,,,0.00,weatherlink.com 1.10,2013-04-11 23:48:00,
2013-04-11 20:03:00,45.1,16.0,30.11,North,349,9.0,11.0,31,0.00,,,0.00,weatherlink.com 1.10,2013-04-12 00:03:00,
2013-04-11 20:18:00,45.0,15.0,30.12,North,350,9.0,11.0,30,0.00,,,0.00,weatherlink.com 1.10,2013-04-12 00:18:00,
2013-04-11 20:33:00,44.3,17.0,30.14,North,5,7.0,17.0,33,0.00,,,0.00,weatherlink.com 1.10,2013-04-12 00:33:00,
2013-04-11 20:48:00,43.6,16.0,30.13,NNW,344,7.0,12.0,33,0.00,,,0.00,weatherlink.com 1.10,2013-04-12 00:48:00,
2013-04-11 21:03:00,43.3,16.0,30.14,NE,47,3.0,13.0,33,0.00,,,0.00,weatherlink.com 1.10,2013-04-12 01:03:00,
2013-04-11 21:18:00,43.1,16.0,30.15,North,360,5.0,8.0,34,0.00,,,0.00,weatherlink.com 1.10,2013-04-12 01:18:00,
2013-04-11 21:33:00,42.9,15.0,30.16,North,355,9.0,13.0,33,0.00,,,0.00,weatherlink.com 1.10,2013-04-12 01:33:00,
2013-04-11 21:48:00,42.3,15.0,30.17,NE,42,5.0,18.0,33,0.00,,,0.00,weatherlink.com 1.10,2013-04-12 01:48:00,
2013-04-11 22:03:00,41.7,15.0,30.17,North,9,1.0,13.0,34,0.00,,,0.00,weatherlink.com 1.10,2013-04-12 02:03:00,
2013-04-11 22:18:00,41.3,14.0,30.18,ENE,75,5.0,12.0,33,0.00,,,0.00,weatherlink.com 1.10,2013-04-12 02:18:00,
2013-04-11 22:33:00,41.0,14.0,30.19,NNE,22,4.0,8.0,34,0.00,,,0.00,weatherlink.com 1.10,2013-04-12 02:33:00,
2013-04-11 22:48:00,40.6,15.0,30.19,NNE,19,2.0,12.0,35,0.00,,,0.00,weatherlink.com 1.10,2013-04-12 02:48:00,
2013-04-11 23:03:00,40.3,14.0,30.19,NNE,28,1.0,13.0,34,0.00,,,0.00,weatherlink.com 1.10,2013-04-12 03:03:00,
2013-04-11 23:18:00,39.8,14.0,30.19,NNE,16,4.0,11.0,35,0.00,,,0.00,weatherlink.com 1.10,2013-04-12 03:18:00,
2013-04-11 23:33:00,39.3,14.0,30.20,NNE,32,3.0,9.0,36,0.00,,,0.00,weatherlink.com 1.10,2013-04-12 03:33:00,
2013-04-11 23:49:00,39.0,14.0,30.21,NE,41,4.0,12.0,36,0.00,,,0.00,weatherlink.com 1.10,2013-04-12 03:49:00,